TimeGMT,TemperatureF,Dew PointF,Humidity,Sea Level PressureIn,VisibilityMPH,Wind Direction,Wind SpeedMPH,Gust SpeedMPH,PrecipitationIn,Events,Conditions,WindDirDegrees,DateUTC
12:50 AM,46.4,44.6,93,29.89,5.0,SSW,12.7,-,N/A,Rain,Light Rain,210,2012-12-22 00:50:00
1:50 AM,46.4,44.6,93,29.86,6.2,South,12.7,-,N/A,Rain,Light Rain,180,2012-12-22 01:50:00
2:50 AM,45,43,89,29.86,10,SSE,16.1,,,Rain,Rain,160,2012-12-22 02:50:00
2:50 AM,44.6,42.8,93,29.83,6.2,SSE,16.1,-,N/A,Rain,Rain,160,2012-12-22 02:50:00
3:50 AM,44.6,42.8,93,29.77,6.2,SSE,18.4,-,N/A,Rain,Rain,160,2012-12-22 03:50:00
4:50 AM,44.6,42.8,93,29.74,6.2,SSE,21.9,-,N/A,Rain,Rain,160,2012-12-22 04:50:00
5:50 AM,46,44,91,29.70,5,SSE,20.7,,,Rain,Rain,150,2012-12-22 05:50:00
5:50 AM,46.4,44.6,93,29.68,5.0,SSE,20.7,-,N/A,Rain,Rain,150,2012-12-22 05:50:00
6:50 AM,46.4,44.6,93,29.65,3.7,SSE,17.3,-,N/A,Rain,Rain,160,2012-12-22 06:50:00
7:50 AM,46.4,46.4,100,29.62,3.1,SSE,12.7,-,N/A,Rain,Rain,160,2012-12-22 07:50:00
8:50 AM,49,49,100,29.62,6,South,11.5,,,Rain,Light Drizzle,190,2012-12-22 08:50:00
8:50 AM,50.0,50.0,100,29.59,6.2,South,11.5,-,N/A,,Light Drizzle,190,2012-12-22 08:50:00
9:50 AM,50.0,50.0,100,29.59,2.5,South,8.1,-,N/A,Rain,Rain,190,2012-12-22 09:50:00
10:50 AM,51.8,51.8,100,29.59,6.2,SSW,9.2,-,N/A,,Mostly Cloudy,210,2012-12-22 10:50:00
11:50 AM,54,54,98,29.60,31,SW,11.5,,,Rain,Rain,230,2012-12-22 11:50:00
11:50 AM,53.6,53.6,100,29.59,6.2,SW,11.5,-,N/A,,Mostly Cloudy,230,2012-12-22 11:50:00
12:50 PM,55.4,53.6,94,29.56,6.2,WSW,13.8,-,N/A,,Mostly Cloudy,240,2012-12-22 12:50:00
1:50 PM,55.4,53.6,94,29.56,-9999.0,WSW,13.8,-,N/A,,Drizzle,240,2012-12-22 13:50:00
2:50 PM,55,54,94,29.58,12,WSW,15.0,,,Rain,Light Rain Showers,240,2012-12-22 14:50:00
2:50 PM,55.4,53.6,94,29.56,6.2,WSW,15.0,-,N/A,Rain,Light Rain Showers,240,2012-12-22 14:50:00
3:50 PM,55.4,53.6,94,29.56,6.2,SW,16.1,-,N/A,Rain,Rain,230,2012-12-22 15:50:00
4:50 PM,53.6,53.6,100,29.56,6.2,SW,18.4,-,N/A,Rain,Light Rain,230,2012-12-22 16:50:00
5:50 PM,54,53,94,29.59,6,WSW,16.1,,,Rain,Light Rain,240,2012-12-22 17:50:00
5:50 PM,53.6,53.6,100,29.56,5.6,WSW,16.1,-,N/A,Rain,Light Rain,240,2012-12-22 17:50:00
6:50 PM,53.6,53.6,100,29.56,6.2,WSW,17.3,-,N/A,Rain,Light Rain,240,2012-12-22 18:50:00
7:50 PM,53.6,51.8,94,29.56,6.2,SW,19.6,-,N/A,Rain,Light Rain,230,2012-12-22 19:50:00
8:50 PM,54,52,90,29.58,16,SW,20.7,,,Rain,Light Rain,230,2012-12-22 20:50:00
8:50 PM,53.6,51.8,94,29.56,6.2,SW,20.7,-,N/A,Rain,Light Rain,230,2012-12-22 20:50:00
9:50 PM,53.6,51.8,94,29.56,6.2,SW,20.7,-,N/A,Rain,Rain,230,2012-12-22 21:50:00
10:50 PM,53.6,51.8,94,29.56,6.2,SW,20.7,-,N/A,Rain,Rain,230,2012-12-22 22:50:00
11:50 PM,54,53,93,29.58,9,SW,21.9,,,Rain,Light Rain,230,2012-12-22 23:50:00
11:50 PM,53.6,51.8,94,29.56,6.2,SW,21.9,-,N/A,Rain,Light Rain,230,2012-12-22 23:50:00